Flag for Germany Weather past 2 weeks in Hennef (Sieg), North Rhine-Westphalia, Germany

Now
54 °F

Clear.


Feels Like: 54 °F
Forecast: 49 / 70 °F
Wind: 3 mph from Northwest

Location: Bonn-Hangelar

Current Time: May 23, 2015 at 12:55:02 AM

Latest Report: May 23, 2015 at 12:00 AM


Visibility: 9 mi

Pressure: 30.23 "Hg

Humidity: 70%

Dew point: 45 °F

Location of Hennef (Sieg)Location

Historic Weather in Hennef (Sieg) — Graph

°F

Hennef (Sieg) temperature yesterday

Maximum temperature yesterday: 65 °F (at 6:00 PM)
Minimum temperature yesterday: 47 °F (at 1:00 AM)
Average temperature yesterday: 55 °F

Past Weeks' High & Low Weather Summary

 TemperatureHumidityPressure
High77 °F (May 11, 6:00 PM)100% (May 15, 6:00 AM)30.37 "Hg (May 15, 6:00 AM)
Low39 °F (May 21, 5:00 AM)36% (May 13, 5:00 PM)29.67 "Hg (May 18, 8:00 PM)
Average54 °F73%30.08 "Hg
* Reported May 7 11:00 PM — May 22 11:00 PM, Hennef (Sieg), Weather by CustomWeather, © 2015

Note: Actual official high and low records may vary slightly from our data, if they occured in-between our weather recording intervals... More about our weather records

Advertising

Hennef (Sieg) weather history for previous 24 hours

 ConditionsComfort  
Time TempWeatherWind HumidityBarometerVisibility
11:00 PM
Fri, May 22
53 °FClear.1 mph72%30.22 "Hg13 mi
10:00 PM55 °FClear.1 mph71%30.22 "Hg16 mi
9:00 PM60 °FSunny.2 mph60%30.21 "Hg18 mi
8:00 PM64 °FScattered clouds.2 mph46%30.20 "Hg25 mi
7:00 PM65 °FScattered clouds.2 mph44%30.20 "Hg25 mi
6:00 PM65 °FOvercast.3 mph45%30.21 "Hg17 mi
5:00 PMN/APassing clouds.6 mphN/AN/A19 mi
4:00 PM64 °FScattered clouds.1 mph44%30.24 "Hg31 mi
3:00 PM63 °FScattered clouds.3 mph47%30.26 "Hg31 mi
2:00 PM63 °FScattered clouds.2 mph53%30.28 "Hg31 mi
1:00 PM61 °FScattered clouds.2 mph56%30.30 "Hg31 mi
12:00 PM59 °FPartly sunny.2 mph58%30.32 "Hg31 mi
11:00 AM58 °FOvercast.2 mph60%30.33 "Hg31 mi
10:00 AM56 °FOvercast.2 mph60%30.34 "Hg31 mi
9:00 AM54 °FPartly sunny.2 mph70%30.34 "Hg31 mi
8:00 AM50 °FPartly sunny.2 mph83%30.34 "Hg28 mi
7:00 AM49 °FOvercast.2 mph83%30.34 "Hg28 mi
6:00 AM47 °FOvercast.2 mph84%30.34 "Hg22 mi
5:00 AM47 °FOvercast.2 mph86%30.34 "Hg17 mi
4:00 AM48 °FOvercast.2 mph81%30.35 "Hg17 mi
3:00 AM49 °FOvercast.2 mph79%30.36 "Hg19 mi
2:00 AM50 °FOvercast.2 mph76%30.36 "Hg25 mi
1:00 AM47 °FPassing clouds.1 mph79%30.37 "Hg19 mi
12:00 AM48 °FOvercast.1 mph80%30.37 "Hg17 mi
Weather by CustomWeather, © 2015

See weather overviewHow to use our weather pages